Sioux City, IA

12:04 AM CDT on July 22, 2017 (GMT -0500)
Sioux Gateway

Weather History for KSUX - March, 2013

Change the Weather History Date:

Saturday, March 2, 2013

  Actual Average Record
Temperature  
Mean Temperature 17 °F 30 °F  
Max Temperature 30 °F 40 °F 76 °F (1974)
Min Temperature 4 °F 21 °F -11 °F (1913)
Degree Days  
Heating Degree Days 48 35  
Month to date heating degree days 89 70  
Since 1 July heating degree days 5238 5364  
Cooling Degree Days 0 0  
Month to date cooling degree days 0 0  
Year to date cooling degree days 0 0  
Moisture  
Dew Point 13 °F    
Average Humidity 80    
Maximum Humidity 96    
Minimum Humidity 63    
Precipitation  
Precipitation 0.00 in 0.04 in 1.12 in (1977)
Month to date precipitation T 0.08  
Year to date precipitation 1.20 1.37  
Snow  
Snow 0.00 in 0.20 in 7.30 in (1977)
Month to date snowfall 0.0 0.5  
Since 1 July snowfall 20.8 27.0  
Snow Depth 3.00 in    
Sea Level Pressure  
Sea Level Pressure 30.31 in    
Wind  
Wind Speed 5 mph (SSE)    
Max Wind Speed 12 mph    
Max Gust Speed -    
Visibility 9 miles    
Events      
T = Trace of Precipitation, MM = Missing Value Source: NWS Daily Summary

Daily Weather History Graph

Daily Weather History Graph

Search for Another Location

Airport or City:

Trip Planner

Search our weather history database for the weather conditions in past years. The results will help you decide how hot, cold, wet, or windy it might be!

Date:

Astronomy

Mar. 02, 2013 Rise Set
Actual Time 6:58 AM CST 6:16 PM CST
Civil Twilight 6:30 AM CST 6:45 PM CST
Nautical Twilight 5:58 AM CST 7:17 PM CST
Astronomical Twilight 5:25 AM CST 7:50 PM CST
Moon No Moon Rise 9:20 AM CST (3/2)
Length of Visible Light 12h 14m
Length of Day
11h 18m
Waning Gibbous, 74% of the Moon is Illuminated
Mar 2
Waning Gibbous
Mar 4
Last Quarter
Mar 11
New
Mar 19
First Quarter
Mar 27
Full

Hourly Weather History & Observations

Time (CST) Temp. Windchill Dew Point Humidity Pressure Visibility Wind Dir Wind Speed Gust Speed Precip Events Conditions
12:22 AM 19.4 °F 10.4 °F 12.2 °F 74% 30.36 in 10.0 mi NNE 6.9 mph - N/A   Scattered Clouds
12:52 AM 10.9 °F - 8.1 °F 88% 30.42 in 10.0 mi Calm Calm - N/A   Partly Cloudy
1:52 AM 7.0 °F 0.1 °F 3.9 °F 87% 30.42 in 8.0 mi West 3.5 mph - N/A   Clear
2:52 AM 9.0 °F - 6.1 °F 88% 30.42 in 8.0 mi Calm Calm - N/A   Clear
3:52 AM 7.0 °F - 5.0 °F 92% 30.40 in 6.0 mi Calm Calm - N/A   Clear
4:52 AM 5.0 °F -2.1 °F 3.0 °F 92% 30.41 in 10.0 mi West 3.5 mph - N/A   Clear
5:52 AM 8.1 °F 1.4 °F 5.0 °F 87% 30.40 in 9.0 mi WNW 3.5 mph - N/A   Clear
6:21 AM 5.0 °F -2.1 °F 3.2 °F 92% 30.34 in 10.0 mi WNW 3.5 mph - N/A   Scattered Clouds
6:42 AM 6.8 °F -0.1 °F 3.2 °F 85% 30.34 in 10.0 mi NW 3.5 mph - N/A   Mostly Cloudy
6:52 AM 7.0 °F -1.7 °F 5.0 °F 92% 30.41 in 2.0 mi NNW 4.6 mph - N/A   Mostly Cloudy
7:27 AM 3.2 °F -4.2 °F 1.4 °F 92% 30.35 in 10.0 mi NW 3.5 mph - N/A   Scattered Clouds
7:52 AM 6.1 °F - 3.9 °F 91% 30.40 in 10.0 mi Calm Calm - N/A   Partly Cloudy
8:05 AM 6.8 °F - 6.8 °F 100% 30.34 in 3.0 mi Calm Calm - N/A   Scattered Clouds
8:52 AM 14.0 °F - 12.0 °F 92% 30.40 in 3.0 mi Calm Calm - N/A   Clear
8:53 AM 14.0 °F - 12.2 °F 93% 30.34 in 6.0 mi Calm Calm - N/A   Clear
9:52 AM 19.0 °F 11.1 °F 15.1 °F 85% 30.37 in 10.0 mi SSE 5.8 mph - N/A   Clear
10:52 AM 19.9 °F 13.4 °F 17.1 °F 89% 30.37 in 10.0 mi SE 4.6 mph - N/A   Scattered Clouds
11:52 AM 23.0 °F 17.0 °F 18.0 °F 81% 30.34 in 10.0 mi SSE 4.6 mph - N/A   Overcast
12:52 PM 26.1 °F 20.5 °F 19.0 °F 75% 30.32 in 10.0 mi ESE 4.6 mph - N/A   Mostly Cloudy
1:52 PM 28.0 °F 24.2 °F 19.9 °F 72% 30.29 in 10.0 mi South 3.5 mph - N/A   Overcast
2:52 PM 28.9 °F 21.1 °F 19.0 °F 67% 30.26 in 10.0 mi SE 8.1 mph - N/A   Overcast
3:52 PM 30.0 °F 21.1 °F 19.9 °F 66% 30.24 in 10.0 mi SE 10.4 mph - N/A   Overcast
4:52 PM 30.0 °F 20.5 °F 21.0 °F 69% 30.23 in 10.0 mi SSE 11.5 mph - N/A   Overcast
5:52 PM 30.0 °F 21.1 °F 21.9 °F 72% 30.21 in 10.0 mi SSE 10.4 mph - N/A   Overcast
6:52 PM 30.0 °F 22.4 °F 19.9 °F 66% 30.20 in 10.0 mi SE 8.1 mph - N/A   Mostly Cloudy
7:52 PM 28.9 °F 21.9 °F 21.0 °F 72% 30.19 in 10.0 mi SE 6.9 mph - N/A   Clear
8:52 PM 26.1 °F 17.6 °F 21.0 °F 81% 30.17 in 10.0 mi ESE 8.1 mph - N/A   Clear
9:52 PM 26.1 °F 16.8 °F 21.0 °F 81% 30.16 in 10.0 mi SE 9.2 mph - N/A   Clear
10:52 PM 25.0 °F 16.3 °F 19.9 °F 81% 30.15 in 8.0 mi SE 8.1 mph - N/A   Clear
11:52 PM 24.1 °F 14.4 °F 19.9 °F 84% 30.12 in 6.0 mi SE 9.2 mph - N/A   Clear